Regional Weather Roundup
Issued by NWS

Home | Current Version | Previous Version | Graphics & Text | Print | Product List | Glossary On
Versions: 1 2 3 4 5 6 7 8 9 10 11 12 13 14 15 16 17 18 19 20 21 22 23 24 25 26 27 28 29 30 31 32 33 34 35 36 37 38 39 40 41 42 43 44 45 46 47 48 49 50
000
ASUS43 KBIS 010159
RWRND

NORTH DAKOTA REGIONAL WEATHER ROUNDUP
NATIONAL WEATHER SERVICE BISMARCK ND
900 PM CDT THU JUL 31 2014

NOTE: "FAIR" INDICATES FEW OR NO CLOUDS BELOW 12,000 FEET WITH NO
SIGNIFICANT WEATHER AND/OR OBSTRUCTIONS TO VISIBILITY.


NDZ001>003-009>011-017-010300-
NORTHWEST NORTH DAKOTA

CITY           SKY/WX    TMP DP  RH WIND       PRES   REMARKS
WILLISTON      CLEAR     80  57  45 E12       30.00S
MINOT          PTCLDY    71  59  65 NE5       30.02S
$$

NDZ018>021-031>035-040>046-010300-
SOUTHWEST NORTH DAKOTA

CITY           SKY/WX    TMP DP  RH WIND       PRES   REMARKS
BISMARCK       PTCLDY    76  54  46 E9        30.02F
GARRISON         N/A     73  60  63 E5        30.02F
HETTINGER ARPT CLEAR     77  54  44 E9        30.06R
$$

NDZ004>008-012>016-024-026-027-054-010300-
NORTHEAST NORTH DAKOTA

CITY           SKY/WX    TMP DP  RH WIND       PRES   REMARKS
GRAND FORKS    PTCLDY    73  67  81 CALM      29.98S
DEVILS LAKE    CLEAR     75  61  60 N5        30.01S
$$

NDZ022-023-025-028>030-036>039-047>053-010300-
SOUTHEAST NORTH DAKOTA

CITY           SKY/WX    TMP DP  RH WIND       PRES   REMARKS
FARGO          PTCLDY    74  62  66 E3        29.99S
$$



USA.gov is the U.S. government's official web portal to all federal, state and local government web resources and services.